EW5619 Weather Reports


time (UTC)temp
C
wind
direction
speed
KPH
gust
KPH
rain 1hr
cm
rain 24hr
cm
rain mn
cm
humidity
%
barometer
mb
20260504050004 8 286 4.8 6.4 0.00 0.00 0.00 63 1005.4
20260504045403 8 265 6.4 12.9 0.00 0.00 0.00 60 1005.6
20260504044503 8 267 6.4 11.3 0.00 0.00 0.00 59 1005.5
20260504043603 8 278 1.6 6.4 0.00 0.00 0.00 60 1005.5
20260504042703 8 265 8.0 11.3 0.00 0.00 0.00 59 1005.7
20260504041803 8 261 11.3 16.1 0.00 0.00 0.00 57 1005.6
20260504040904 8 273 6.4 9.7 0.00 0.00 0.00 57 1005.6
20260504040004 7 268 6.4 12.9 0.00 0.00 0.00 57 1005.5
20260504035403 8 253 8.0 12.9 0.00 0.00 0.00 56 1005.5
20260504034503 8 257 11.3 14.5 0.00 0.00 0.00 54 1005.4
20260504033603 8 263 8.0 11.3 0.00 0.00 0.00 53 1005.4
20260504032703 7 269 6.4 9.7 0.00 0.00 0.00 55 1005.6
20260504031824 8 272 8.0 11.3 0.00 0.00 0.00 55 1005.5
20260504030903 8 253 6.4 14.5 0.00 0.00 0.00 54 1005.7
20260504030004 8 259 4.8 9.7 0.00 0.00 0.00 54 1005.7
20260504025403 8 264 6.4 9.7 0.00 0.00 0.00 53 1005.7
20260504024503 8 260 4.8 9.7 0.00 0.00 0.00 54 1005.6
20260504023603 8 258 9.7 11.3 0.00 0.00 0.00 52 1005.7
20260504022703 8 237 4.8 6.4 0.00 0.00 0.00 51 1005.9
20260504021803 8 256 3.2 4.8 0.00 0.00 0.00 51 1006.0
20260504020903 8 257 3.2 4.8 0.00 0.00 0.00 53 1006.0
20260504020025 8 275 3.2 6.4 0.00 0.00 0.00 53 1006.0
20260504015404 8 256 6.4 6.4 0.00 0.00 0.00 52 1006.0
20260504014503 9 264 6.4 9.7 0.00 0.00 0.00 51 1006.2
20260504013603 9 268 4.8 9.7 0.00 0.00 0.00 51 1006.4
20260504012724 9 250 3.2 6.4 0.00 0.00 0.00 48 1006.1
20260504011803 9 279 6.4 9.7 0.00 0.00 0.00 48 1006.2
20260504010903 10 270 9.7 16.1 0.00 0.00 0.00 45 1006.3
20260504010003 10 260 3.2 4.8 0.00 0.00 0.00 46 1006.2
20260504005403 10 254 6.4 14.5 0.00 0.00 0.00 45 1006.2
20260504004503 10 240 4.8 12.9 0.00 0.00 0.00 46 1006.1
20260504003603 9 315 6.4 9.7 0.00 0.00 0.00 47 1006.1
20260504002706 10 260 3.2 4.8 0.00 0.00 0.00 45 1006.1
20260504001803 10 259 4.8 6.4 0.00 0.00 0.00 44 1006.2
20260504000903 10 256 3.2 3.2 0.00 0.00 0.00 43 1005.9
20260504000003 11 252 3.2 4.8 0.00 0.00 0.00 42 1006.1
20260503235403 11 270 3.2 3.2 0.00 0.00 0.00 42 1005.9
20260503234503 11 259 8.0 11.3 0.00 0.00 0.00 41 1006.0
20260503233603 11 256 6.4 6.4 0.00 0.00 0.00 41 1006.0
20260503232703 11 257 6.4 9.7 0.00 0.00 0.00 40 1006.0
20260503231824 11 278 6.4 11.3 0.00 0.00 0.00 39 1006.0
20260503230903 11 255 3.2 6.4 0.00 0.00 0.00 39 1006.0
20260503230003 12 242 6.4 6.4 0.00 0.00 0.00 38 1006.0
20260503225423 12 251 3.2 6.4 0.00 0.00 0.00 34 1006.0
20260503224502 12 267 8.0 11.3 0.00 0.00 0.00 33 1006.0
20260503223602 12 268 4.8 6.4 0.00 0.00 0.00 33 1006.0
20260503222702 12 272 1.6 11.3 0.00 0.00 0.00 33 1005.9
20260503221802 13 286 4.8 6.4 0.00 0.00 0.00 32 1005.8
20260503220923 13 260 4.8 9.7 0.00 0.00 0.00 32 1005.9
20260503220023 12 309 3.2 4.8 0.00 0.00 0.00 32 1006.0
20260503215402 12 280 3.2 11.3 0.00 0.00 0.00 33 1006.1
20260503214503 12 288 3.2 4.8 0.00 0.00 0.00 32 1006.2
20260503213602 13 303 4.8 6.4 0.00 0.00 0.00 30 1006.2
20260503212702 13 265 9.7 17.7 0.00 0.00 0.00 31 1006.0
20260503211802 13 288 6.4 12.9 0.00 0.00 0.00 32 1006.0
20260503210902 12 296 1.6 3.2 0.00 0.00 0.00 33 1006.1
20260503210002 13 290 9.7 14.5 0.00 0.00 0.00 33 1006.3
20260503205423 13 313 4.8 9.7 0.00 0.00 0.00 32 1005.9
20260503204503 12 316 3.2 3.2 0.00 0.00 0.00 33 1006.1
20260503203602 12 311 6.4 17.7 0.00 0.00 0.00 33 1005.9
20260503202702 12 296 4.8 9.7 0.00 0.00 0.00 32 1006.2
20260503201802 12 324 4.8 6.4 0.00 0.00 0.00 33 1006.4
20260503200902 12 299 3.2 11.3 0.00 0.00 0.00 34 1006.3
20260503200002 13 290 4.8 12.9 0.00 0.00 0.00 33 1006.5
20260503195424 12 282 8.0 16.1 0.00 0.00 0.00 32 1006.5
20260503194502 12 291 9.7 16.1 0.00 0.00 0.00 34 1006.5
20260503193602 12 318 4.8 9.7 0.00 0.00 0.00 35 1007.0
20260503192703 11 282 3.2 3.2 0.00 0.00 0.00 36 1007.0
20260503191802 12 298 3.2 4.8 0.00 0.00 0.00 35 1006.9
20260503190903 12 314 3.2 3.2 0.00 0.00 0.00 36 1007.1
20260503190002 11 312 6.4 9.7 0.00 0.00 0.00 36 1007.1
20260503185402 12 304 6.4 6.4 0.00 0.00 0.00 35 1007.3
20260503184502 11 301 3.2 4.8 0.00 0.00 0.00 36 1007.2
20260503183602 11 279 3.2 4.8 0.00 0.00 0.00 39 1007.5
20260503182702 12 291 3.2 9.7 0.00 0.00 0.00 38 1007.5
20260503181802 11 312 4.8 6.4 0.00 0.00 0.00 39 1007.5
20260503180902 11 314 3.2 6.4 0.00 0.00 0.00 39 1007.7
20260503180002 11 305 0.0 3.2 0.00 0.00 0.00 41 1007.9
20260503175423 11 288 3.2 4.8 0.00 0.00 0.00 41 1007.8
20260503174502 11 334 1.6 3.2 0.00 0.00 0.00 42 1008.0
20260503173603 10 296 1.6 9.7 0.00 0.00 0.00 43 1008.1
20260503172702 10 314 1.6 4.8 0.00 0.00 0.00 43 1008.1
20260503171823 10 335 4.8 6.4 0.00 0.00 0.00 40 1008.2
20260503170902 12 295 6.4 9.7 0.00 0.00 0.00 39 1008.1
20260503150903 9 312 3.2 6.4 0.00 0.13 0.00 49 1009.5
20260503130902 6 291 0.0 1.6 0.00 0.13 0.00 67 1011.0
20260503080902 3 293 3.2 4.8 0.00 0.18 0.00 86 1011.0
20260503072724 3 311 3.2 4.8 0.00 0.18 0.00 87 1010.9